Regional Weather Roundup
Issued by NWS

Home | Current Version | Previous Version | Graphics & Text | Print | Product List | Glossary On
Versions: 1 2 3 4 5 6 7 8 9 10 11 12 13 14 15 16 17 18 19 20 21 22 23 24 25 26 27 28 29 30 31 32 33 34 35 36 37 38 39 40 41 42 43 44 45 46 47 48 49 50
000
ASUS43 KMKX 310120
RWRWI

WISCONSIN REGIONAL WEATHER ROUNDUP
NATIONAL WEATHER SERVICE MILWAUKEE/SULLIVAN WI
700 PM CST FRI JAN 30 2015

NOTE: "FAIR" INDICATES FEW OR NO CLOUDS BELOW 12,000 FEET WITH NO
SIGNIFICANT WEATHER AND/OR OBSTRUCTIONS TO VISIBILITY.

WIZ001-002-006>008-014>016-023>028-310200-
NORTHWEST WISCONSIN

CITY           SKY/WX    TMP DP  RH WIND       PRES   REMARKS
SUPERIOR ARPT  MOCLDY    16   6  64 CALM      30.25S
ASHLAND        CLOUDY    19   4  51 S6        30.25F WCI  11
HAYWARD        CLOUDY    15   3  59 S7        30.23F WCI   5
SIREN          CLOUDY    19  10  67 S7        30.22F WCI  10
CUMBERLAND     CLOUDY    14   7  73 SE6       30.24F WCI   5
RICE LAKE      CLOUDY    15   7  68 SE6       30.28R WCI   7
CHETEK         MOCLDY    14   6  68 CALM      30.28R
LADYSMITH      MOCLDY    16   7  68 CALM      30.28F
EAU CLAIRE     MOCLDY    15   5  64 S7        30.29F WCI   5
MENOMONIE      CLOUDY    17   8  67 SE9       30.28F WCI   5
NEW RICHMOND   CLOUDY    20  13  73 S10       30.23F WCI   9
OSCEOLA        CLOUDY    21  15  76 SE6       30.26F WCI  14
$$

WIZ003>005-009-010-017-018-310200-
NORTH CENTRAL WISCONSIN

CITY           SKY/WX    TMP DP  RH WIND       PRES   REMARKS
MANITOWISH WTR CLOUDY    15   3  60 SW5       30.21F WCI   7
ARBOR VITAE    CLOUDY    18   6  61 S10       30.21F WCI   6
WOODRUFF       CLOUDY    18   6  61 S10       30.21F WCI   6
RHINELANDER    CLOUDY    14   4  64 SW13      30.24F WCI   0
EAGLE RIVER    MOCLDY    14   3  60 CALM      30.22S
LAND O LAKES   CLOUDY    15   8  73 CALM      30.21F
PHILLIPS       MOCLDY    14   4  64 S6        30.23F WCI   5
TOMAHAWK       PTCLDY    14   5  68 CALM      30.26F
MEDFORD        PTCLDY    11   5  74 S6        30.26F WCI   2
MERRILL        PTCLDY    14   6  70 SW3       30.29S
$$

WIZ029-030-035-036-043>047-310200-
CENTRAL WISCONSIN

CITY           SKY/WX    TMP DP  RH WIND       PRES   REMARKS
WAUSAU         PTCLDY    15   5  64 S3        30.29F
MOSINEE        NOT AVBL
MARSHFIELD     CLEAR     15   3  59 SW6       30.30F WCI   6
STEVENS POINT  CLOUDY    14   5  67 S5        30.32F WCI   6
WAUPACA        PTCLDY    21   9  61 CALM      30.35F
WAUTOMA        PTCLDY    15   5  64 CALM      30.36F
WISC RAPIDS    CLEAR     15   4  61 CALM      30.34F
CAMP DOUGLAS   CLEAR     10   7  87 SE5       30.34F WCI   2
$$

WIZ011>013-019>022-031-037>040-048>050-310200-
NORTHEAST WISCONSIN

CITY           SKY/WX    TMP DP  RH WIND       PRES   REMARKS
ANTIGO         CLOUDY    13   5  68 SW9       30.27S WCI   1
SHAWANO        PTCLDY    21   7  54 SW3       30.34F
OCONTO         PTCLDY    17   6  62 CALM      30.35F
STURGEON BAY   MOCLDY    18   7  62 S3        30.36F
GREEN BAY      CLOUDY    20  10  65 S6        30.36F WCI  12
MANITOWOC      CLOUDY    20  12  71 S6        30.38F WCI  12
APPLETON       MOCLDY    19   9  63 VRB5      30.35F WCI  13
CLINTONVILLE   MOCLDY    19   9  63 SW3       30.34F
OSHKOSH        PTCLDY    18  10  71 S5        30.36F WCI  11
$$

WIZ032>034-041-042-053>061-310200-
SOUTHWEST WISCONSIN

CITY           SKY/WX    TMP DP  RH WIND       PRES   REMARKS
LA CROSSE      CLEAR     22   9  57 SE6       30.34F WCI  14
SPARTA         CLEAR     12   7  80 E3        30.35F
VIROQUA        CLEAR     19   8  63 S6        30.31F WCI  11
BOSCOBEL       CLEAR     18   7  62 CALM      30.38F
PRAIRIE DU CHI CLEAR     23  10  56 CALM      30.37F
PLATTEVILLE    CLEAR     20  13  74 S6        30.36F WCI  12
$$

WIZ056-057-062-063-064-067-068-310200-
SOUTH CENTRAL WISCONSIN

CITY           SKY/WX    TMP DP  RH WIND       PRES   REMARKS
REEDSBURG      PTCLDY    19   9  64 S5        30.35F WCI  12
BARABOO/DELLS  PTCLDY    17   8  67 CALM      30.35F
LONE ROCK      CLEAR     17   9  70 CALM      30.38F
MINERAL POINT  CLEAR     21  12  68 S6        30.35F WCI  14
MADISON        CLEAR     20   9  62 SW3       30.37F
MIDDLETON      CLEAR     23   9  55 CALM      30.37F
WATERTOWN      CLOUDY    20  11  67 CALM      30.37F
MONROE         CLEAR     21  14  73 S6        30.37S WCI  14
JANESVILLE     CLEAR     23  12  63 SW6       30.39F WCI  16
$$

WIZ051-052-058>065-066-070>072-310200-
SOUTHEAST WISCONSIN

CITY           SKY/WX    TMP DP  RH WIND       PRES   REMARKS
MILWAUKEE      MOCLDY    24   8  50 W7        30.40S WCI  16
WAUKESHA       CLEAR     19   9  63 CALM      30.39F
MILWAUKEE/TIMM MOCLDY    23   7  50 SW6       30.40F WCI  16
RACINE         PTCLDY    24  10  55 SW3       30.42S
BURLINGTON     PTCLDY    17   9  70 CALM      30.40S
KENOSHA        CLEAR     22  12  65 W3        30.41R
FOND DU LAC    MOCLDY    20   9  62 S7        30.36F WCI  11
SHEBOYGAN      PTCLDY    20  10  65 SW3       30.37F
WEST BEND      CLOUDY    21  10  63 CALM      30.38S
JUNEAU         MOCLDY    19  10  65 S5        30.38S WCI  13
$$

LSZ147-162-310200-
LAKE SUPERIOR

STATION/POSITION TIME  TEMP    WIND        PRES    WAVE
                       AIR SEA DIR/SP/G            HT/PER
                 (UTC) (F)     (DEG/KT/KT) (MB)    (FT/S)
DEVILS ISLAND    0100   17     200/  8/  9 1025.4F
PORT WING        0040   18     190/  7/  9 1024.4F
SAXON HARBOR     0000   19      CALM  /  2 1025.4F
$$

LMZ867-665-643>646-310200-
LAKE MICHIGAN

STATION/POSITION TIME  TEMP    WIND        PRES    WAVE
                       AIR SEA DIR/SP/G            HT/PER
                 (UTC) (F)     (DEG/KT/KT) (MB)    (FT/S)
NORTHPORT PIER   0014   17     190/  2/  5 1028.4F
SISTER BAY       0013   17     190/  8/  9   N/A
KEWAUNEE LAKESHO 0000   20     210/  3/  4 1028.2F
SHEBOYGAN LAKESH 0100   23     240/  5/  6 1030.3F
PORT WASHINGTON  0040   24     260/  4/  6 1029.8F
MILWAUKEE LAKESH 0100   25     240/  8/ 11   N/A
KENOSHA   LAKESH 0100   25     260/  6/  8 1029.8S
$$

TC  - TEMPERATURE IN CELSIUS
VSB - VISIBILITY IN STATUTE MILES
WCI - WIND CHILL INDEX
HX  - HEAT INDEX



USA.gov is the U.S. government's official web portal to all federal, state and local government web resources and services.